[[{"header":{"parameterUnit":"m.s-1","parameterCategory":1,"la1":30.2991,"la2":30.254,"lo1":-89.0895,"lo2":-89.0444,"dy":0.0017,"dx":0.0017,"nx":28,"ny":28,"refTime":"2025-05-01T09:00:00:Z","depth":0,"parameterNumber":2,"parameterNumberName":"U-component_of_WINDS"},"data":[0,0,0,0,0,0,0,0,0,0,0,0,0,0,0,0,0,0,0,0,0,0,0,0,0,0,0,0,0,0,0,0,0,0,0,0,0,0,0,0,0,0,0,0,0,0,0,0,0,0,0,0,0,0,0,0,0,0,-1.0472,-1.0472,0,-1.0447,-1.0446,-1.0446,-1.0424,-1.0424,-1.0424,-1.0424,-1.0398,-1.0398,-1.0398,0,0,0,0,0,0,0,0,0,0,0,0,0,-1.0504,-1.0503,-1.0472,-1.0472,-1.0472,-1.0447,-1.0446,-1.0446,-1.0424,-1.0424,-1.0424,-1.0423,-1.0399,-1.0398,-1.0397,0,0,0,0,0,0,0,0,0,0,0,0,0,-1.0485,-1.0503,-1.0472,-1.0458,-1.0456,-1.0447,-1.0446,-1.0446,-1.0424,-1.0424,-1.0424,-1.0423,-1.0399,-1.0398,-1.0397,-1.0401,0,0,-1.0395,-1.0395,0,0,0,0,0,0,0,0,-1.0486,-1.0484,-1.046,-1.0459,-1.0457,-1.0438,-1.0448,-1.0431,-1.0424,-1.0436,-1.0424,-1.0423,-1.0412,-1.041,-1.0406,-1.04,-1.0398,-1.0395,-1.0395,-1.0395,-1.0394,0,0,0,0,0,0,0,-1.0488,-1.0485,-1.0462,-1.046,-1.0458,-1.0453,-1.045,-1.0445,-1.0427,-1.0435,-1.0434,-1.0431,-1.0411,-1.0407,-1.0406,-1.0398,-1.0395,-1.0395,-1.0394,-1.0394,-1.0394,-1.0394,0,0,0,0,0,0,-1.0491,-1.0486,-1.0463,-1.0461,-1.0471,-1.0453,-1.0449,-1.0445,-1.0427,-1.0424,-1.0431,-1.043,-1.0408,-1.0406,-1.0405,-1.0408,-1.0395,-1.0394,-1.0394,-1.0393,-1.0394,-1.0394,0,0,0,0,0,0,-1.0492,-1.0489,-1.0464,-1.0473,-1.047,-1.0453,-1.0447,-1.0444,-1.044,-1.0424,-1.042,-1.043,-1.0408,-1.0406,-1.0402,-1.0407,-1.0394,-1.0393,-1.0393,-1.0393,-1.0394,-1.0414,0,0,0,0,0,0,-1.0493,-1.0489,-1.049,-1.0474,-1.0469,-1.0461,-1.0448,-1.0444,-1.0439,-1.0437,-1.0422,-1.0419,-1.0407,-1.0403,-1.0401,-1.0405,-1.0393,-1.0392,-1.0393,-1.0394,-1.0413,-1.0415,-1.0417,0,0,0,0,0,-1.0494,-1.0497,-1.049,-1.0488,-1.047,-1.0462,-1.0459,-1.0446,-1.0439,-1.044,-1.043,-1.0419,-1.0406,-1.0403,-1.0401,-1.0405,-1.0392,-1.0393,-1.0394,-1.0412,-1.0415,-1.0417,0,0,0,0,0,0,-1.0515,-1.0494,-1.0487,-1.0484,-1.0475,-1.0458,-1.0459,-1.0449,-1.0441,-1.044,-1.0424,-1.0421,-1.0419,-1.0411,-1.0408,-1.0407,-1.0398,-1.0398,-1.0412,-1.0415,-1.0417,-1.0419,-1.0392,0,0,0,0,0,-1.0519,-1.0514,-1.0496,-1.0496,-1.0491,-1.0476,-1.0472,-1.0462,-1.0452,-1.0448,-1.0437,-1.0428,-1.0422,-1.0418,-1.0411,-1.0412,-1.0408,-1.0413,-1.0416,-1.0417,-1.0418,-1.0418,-1.0421,-1.0397,-1.0397,-1.0397,0,0,-1.0528,-1.0516,-1.0514,-1.05,-1.0491,-1.0487,-1.0473,-1.0468,-1.0465,-1.0447,-1.0443,-1.0435,-1.0424,-1.0422,-1.0421,-1.0416,-1.0424,-1.0418,-1.042,-1.042,-1.042,-1.0422,-1.0424,-1.0398,-1.0397,-1.0397,0,0,-1.0542,-1.0532,-1.0531,-1.0523,-1.051,-1.05,-1.0499,-1.0484,-1.0478,-1.0473,-1.046,-1.0456,-1.0446,-1.0438,-1.0433,-1.0445,-1.0436,-1.0443,-1.0455,-1.0455,-1.0457,-1.0459,-1.0464,-1.0465,-1.0444,-1.0444,-1.0444,0,-1.0554,-1.0546,-1.0531,-1.0528,-1.0523,-1.0506,-1.0505,-1.0498,-1.0484,-1.0481,-1.0475,-1.0462,-1.0454,-1.0451,-1.0454,-1.045,-1.045,-1.0445,-1.0458,-1.046,-1.0461,-1.0465,-1.0467,-1.0445,-1.0445,-1.0445,-1.0445,0,-1.0563,-1.0558,-1.0558,-1.0545,-1.054,-1.0538,-1.0523,-1.0519,-1.0511,-1.0501,-1.0497,-1.0486,-1.0477,-1.0476,-1.0467,-1.0472,-1.0469,-1.0461,-1.0451,-1.0464,-1.0468,-1.047,-1.0447,-1.0446,-1.0446,-1.0446,0,0,-1.0589,-1.0568,-1.0568,-1.0562,-1.0547,-1.0543,-1.0541,-1.0532,-1.0529,-1.052,-1.0518,-1.051,-1.0503,-1.0497,-1.0487,-1.0488,-1.0498,-1.0479,-1.0479,-1.0484,-1.0504,-1.051,-1.0512,-1.0492,-1.0492,-1.0492,-1.0505,0,-1.0601,-1.0595,-1.0581,-1.058,-1.0575,-1.056,-1.0558,-1.0549,-1.054,-1.0535,-1.0526,-1.052,-1.0511,-1.0507,-1.0507,-1.0497,-1.0502,-1.0496,-1.049,-1.049,-1.0494,-1.0514,-1.0521,-1.0533,-1.0506,-1.0506,-1.0507,0,-1.0614,-1.0605,-1.0603,-1.0589,-1.0587,-1.0585,-1.0576,-1.0571,-1.0561,-1.0555,-1.0549,-1.0538,-1.0535,-1.0526,-1.0522,-1.0518,-1.0515,-1.051,-1.051,-1.0509,-1.0499,-1.0514,-1.0537,-1.0539,-1.0509,-1.0508,-1.0508,0,-1.0634,-1.0622,-1.0619,-1.0615,-1.0598,-1.0597,-1.059,-1.0579,-1.0575,-1.0567,-1.0565,-1.0557,-1.0553,-1.0547,-1.0535,-1.0529,-1.0533,-1.0523,-1.0528,-1.0528,-1.053,-1.053,-1.0552,-1.0527,-1.0527,-1.0527,-1.0527,0,-1.0648,-1.0648,-1.0628,-1.0627,-1.0626,-1.0611,-1.0611,-1.0602,-1.0593,-1.059,-1.0576,-1.0574,-1.0558,-1.0554,-1.0544,-1.0543,-1.0541,-1.0536,-1.0534,-1.0538,-1.0538,-1.0536,-1.0535,-1.0528,-1.0527,-1.0527,-1.0527,0,-1.0671,-1.0657,-1.0654,-1.0638,-1.0634,-1.0634,-1.0621,-1.0619,-1.061,-1.0606,-1.0604,-1.059,-1.0584,-1.0572,-1.0563,-1.0556,-1.0558,-1.0553,-1.0561,-1.056,-1.0566,-1.0566,-1.0588,-1.059,-1.0563,-1.0564,-1.0564,0,-1.0681,-1.068,-1.0665,-1.0661,-1.0655,-1.065,-1.0645,-1.0631,-1.0627,-1.0615,-1.0615,-1.0609,-1.0603,-1.0595,-1.0584,-1.0577,-1.0572,-1.058,-1.0571,-1.0575,-1.0573,-1.0573,-1.0573,-1.0583,-1.0583,-1.0583,-1.0583,0,-1.0702,-1.0695,-1.0689,-1.068,-1.0675,-1.0668,-1.066,-1.0659,-1.0642,-1.0639,-1.0633,-1.0628,-1.0619,-1.0613,-1.0605,-1.0598,-1.0588,-1.0586,-1.0587,-1.0591,-1.0596,-1.0594,-1.0567,-1.0586,-1.0586,-1.0586,-1.0585,-1.0585,-1.0719,-1.0717,-1.0706,-1.07,-1.0692,-1.0685,-1.0683,-1.0673,-1.0668,-1.0659,-1.0651,-1.0646,-1.0636,-1.0624,-1.0618,-1.0615,-1.061,-1.0611,-1.0611,-1.0612,-1.0614,-1.0597,-1.0613,-1.0613,-1.0613,-1.0613,-1.0613,0,-1.0739,-1.0731,-1.0725,-1.0714,-1.071,-1.07,-1.0691,-1.0688,-1.0684,-1.0675,-1.0669,-1.0663,-1.0657,-1.0646,-1.0639,-1.0638,-1.0634,-1.0637,-1.0637,-1.0636,-1.0619,-1.0619,-1.0641,-1.0641,-1.0641,-1.0641,-1.0641,-1.0641,-1.0749,-1.0746,-1.0739,-1.0732,-1.0724,-1.0719,-1.0715,-1.0709,-1.0702,-1.0695,-1.069,-1.0682,-1.0673,-1.0665,-1.066,-1.0656,-1.0655,-1.066,-1.0655,-1.0639,-1.0637,-1.0634,-1.0634,-1.0659,-1.0659,-1.0673,-1.0673,-1.0673]},{"header":{"parameterUnit":"m.s-1","parameterCategory":1,"la1":30.2991,"la2":30.254,"lo1":-89.0895,"lo2":-89.0444,"dy":0.0017,"dx":0.0017,"nx":28,"ny":28,"refTime":"2025-05-01T09:00:00:Z","depth":0,"parameterNumber":3,"parameterNumberName":"V-component_of_WINDS"},"data":[0,0,0,0,0,0,0,0,0,0,0,0,0,0,0,0,0,0,0,0,0,0,0,0,0,0,0,0,0,0,0,0,0,0,0,0,0,0,0,0,0,0,0,0,0,0,0,0,0,0,0,0,0,0,0,0,0,0,5.8032,5.8032,0,5.8027,5.8027,5.8027,5.7956,5.7954,5.7952,5.7951,5.7945,5.7947,5.7948,0,0,0,0,0,0,0,0,0,0,0,0,0,5.798,5.7981,5.8032,5.8032,5.8032,5.8027,5.8027,5.8027,5.7956,5.7954,5.7952,5.795,5.7945,5.7947,5.7949,0,0,0,0,0,0,0,0,0,0,0,0,0,5.7992,5.7982,5.8032,5.7996,5.7993,5.8027,5.8027,5.8027,5.7957,5.7954,5.7951,5.7949,5.7944,5.7947,5.7949,5.8017,0,0,5.7956,5.7957,0,0,0,0,0,0,0,0,5.7991,5.7994,5.8001,5.7999,5.7995,5.7989,5.8007,5.8023,5.7957,5.797,5.7951,5.7947,5.7962,5.7963,5.7968,5.8017,5.8017,5.7956,5.7958,5.7959,5.7959,0,0,0,0,0,0,0,5.799,5.7993,5.803,5.8002,5.7998,5.798,5.7979,5.8009,5.7981,5.7969,5.7964,5.7964,5.796,5.7966,5.7967,5.8016,5.7956,5.7958,5.796,5.796,5.812,5.8123,0,0,0,0,0,0,5.7995,5.7993,5.803,5.803,5.7986,5.7983,5.7982,5.7994,5.7981,5.7976,5.7967,5.7961,5.7963,5.7965,5.7967,5.8045,5.7958,5.7961,5.7962,5.8117,5.8121,5.8124,0,0,0,0,0,0,5.7994,5.7999,5.803,5.801,5.8013,5.7987,5.8001,5.7995,5.8001,5.7979,5.7974,5.7978,5.7961,5.7964,5.8005,5.8043,5.7962,5.7964,5.8114,5.8118,5.8122,5.8202,0,0,0,0,0,0,5.7993,5.7999,5.8024,5.8011,5.8014,5.8069,5.8004,5.7997,5.8005,5.7998,5.7988,5.7984,5.7959,5.8002,5.8007,5.8045,5.7966,5.811,5.8116,5.8121,5.8195,5.8208,5.8219,0,0,0,0,0,5.7991,5.8047,5.8026,5.8031,5.8046,5.8071,5.8073,5.8043,5.8008,5.8034,5.802,5.7984,5.8039,5.8007,5.8012,5.8051,5.8108,5.8114,5.8121,5.819,5.8206,5.8219,0,0,0,0,0,0,5.8065,5.8045,5.8021,5.8075,5.8075,5.8059,5.809,5.8061,5.8071,5.8063,5.8026,5.8025,5.8072,5.8066,5.803,5.8116,5.8067,5.8075,5.8118,5.8133,5.8144,5.8144,5.7968,0,0,0,0,0,5.8088,5.811,5.8091,5.814,5.8142,5.8116,5.8126,5.8103,5.8102,5.8102,5.8091,5.8092,5.8108,5.812,5.8135,5.8195,5.8191,5.8225,5.8237,5.8246,5.8253,5.8283,5.8297,5.8145,5.8145,5.8145,0,0,5.8135,5.8126,5.8143,5.8155,5.8153,5.8176,5.8117,5.8144,5.8161,5.8106,5.8144,5.8137,5.8134,5.8185,5.8207,5.8182,5.8295,5.8254,5.8262,5.8264,5.8291,5.8306,5.8319,5.8149,5.8149,5.8148,0,0,5.8232,5.8229,5.8268,5.8267,5.8265,5.8247,5.8257,5.8246,5.8238,5.8276,5.8235,5.8255,5.8285,5.8285,5.8289,5.8387,5.8354,5.8393,5.8454,5.8484,5.8496,5.8506,5.854,5.8552,5.84,5.84,5.84,0,5.829,5.8324,5.8293,5.8323,5.8329,5.8281,5.832,5.8321,5.8324,5.8329,5.8301,5.8338,5.8333,5.8382,5.8406,5.8412,5.8421,5.8393,5.8497,5.8507,5.8516,5.8548,5.8561,5.8405,5.8404,5.8404,5.8403,0,5.8396,5.842,5.8453,5.8456,5.8466,5.8501,5.8475,5.8489,5.8466,5.8451,5.849,5.8483,5.8495,5.8505,5.8483,5.8552,5.8536,5.8503,5.8452,5.8536,5.8565,5.8577,5.8411,5.841,5.8408,5.8407,0,0,5.8539,5.8524,5.8536,5.8537,5.8531,5.8549,5.8582,5.8593,5.8605,5.8609,5.8635,5.8663,5.8632,5.8637,5.8614,5.8641,5.8717,5.8604,5.8603,5.8624,5.8791,5.8815,5.8829,5.8696,5.8698,5.87,5.8791,0,5.8631,5.8686,5.8658,5.8716,5.8738,5.8693,5.8721,5.872,5.8708,5.8725,5.8711,5.8731,5.8689,5.8692,5.8716,5.8703,5.875,5.8696,5.8719,5.872,5.8719,5.8845,5.887,5.8956,5.8802,5.8804,5.8805,0,5.8746,5.8754,5.8814,5.8804,5.8812,5.8838,5.8846,5.8863,5.8861,5.885,5.8856,5.8827,5.8858,5.8809,5.8852,5.8816,5.8824,5.8819,5.8821,5.8821,5.8767,5.8846,5.8983,5.8995,5.8823,5.8822,5.8821,0,5.8842,5.8868,5.8907,5.891,5.8898,5.8918,5.8914,5.891,5.8918,5.8926,5.8931,5.8942,5.8948,5.8958,5.8932,5.89,5.8978,5.8927,5.8969,5.897,5.8986,5.8985,5.9124,5.8994,5.8994,5.8994,5.8994,0,5.8947,5.8986,5.895,5.8974,5.9016,5.8984,5.9026,5.9018,5.9014,5.9036,5.8998,5.9019,5.8985,5.9003,5.8983,5.9021,5.9024,5.9016,5.901,5.9018,5.9019,5.9022,5.9015,5.8997,5.8997,5.8996,5.8995,0,5.9061,5.9039,5.9079,5.9065,5.9062,5.9094,5.9082,5.9103,5.9089,5.9116,5.9121,5.9098,5.9117,5.9093,5.911,5.9097,5.9148,5.9134,5.9148,5.9143,5.9186,5.9182,5.933,5.9347,5.9208,5.921,5.9211,0,5.9129,5.9157,5.9147,5.9158,5.9156,5.9176,5.9184,5.9154,5.9165,5.9165,5.9187,5.9202,5.9213,5.9245,5.923,5.9242,5.9227,5.9279,5.9229,5.9236,5.9226,5.9224,5.9227,5.9288,5.929,5.9291,5.9292,0,5.9251,5.9239,5.9253,5.9263,5.9274,5.9281,5.9284,5.9296,5.9265,5.9279,5.9297,5.9305,5.9322,5.9338,5.9347,5.9342,5.9312,5.9308,5.9318,5.9326,5.9333,5.9329,5.9174,5.9305,5.9303,5.9303,5.9302,5.9301,5.9343,5.9366,5.9361,5.9378,5.9378,5.9382,5.9401,5.9389,5.9404,5.9415,5.9397,5.942,5.9418,5.9426,5.9426,5.9443,5.9421,5.9436,5.9439,5.9443,5.9449,5.9332,5.9445,5.9444,5.9444,5.9444,5.9444,0,5.9462,5.9457,5.9473,5.9479,5.9492,5.9463,5.9465,5.9478,5.9499,5.9499,5.951,5.9531,5.9547,5.9533,5.9545,5.9562,5.9549,5.9566,5.9564,5.9563,5.9469,5.9458,5.9577,5.9577,5.9577,5.9577,5.9577,5.9577,5.9525,5.9562,5.9549,5.9585,5.958,5.9602,5.9606,5.961,5.961,5.9635,5.9647,5.9638,5.9633,5.9645,5.9657,5.9653,5.9658,5.9681,5.9672,5.9583,5.957,5.9558,5.9547,5.9683,5.9683,5.9764,5.9765,5.9766]}]]